QPF
0.00 0.00 0.00 0.00 0.00 0.00 0.00 0.00 0.00 0.00 0.00 0.00 0.00 0.01 0.00 0.00 0.00 0.00 0.00 0.01 0.01 0.01 0.00 0.00 0.00 0.00 0.00 0.00 0.01 0.01 0.01 0.01 0.01 0.01 0.01 0.01 0.01 0.02 0.02 0.02 0.02 0.02 0.04 0.05
0.00 0.00 0.00 0.00 0.00 0.00 0.00 0.00 0.00 0.00 0.00 0.00 0.00 0.00 0.00 0.00 0.00 0.00 0.00 0.01 0.01 0.01 0.00 0.00 0.00 0.00 0.00 0.00 0.00 0.01 0.01 0.02 0.02 0.02 0.02 0.02 0.02 0.02 0.02 0.02 0.03 0.03 0.04 0.05
0.00 0.00 0.00 0.00 0.00 0.00 0.00 0.00 0.00 0.00 0.00 0.00 0.00 0.00 0.00 0.00 0.00 0.00 0.00 0.00 0.00 0.00 0.01 0.01 0.01 0.01 0.00 0.00 0.00 0.00 0.00 0.00 0.01 0.01 0.02 0.02 0.03 0.03 0.03 0.03 0.03 0.03 0.03 0.04
0.00 0.00 0.00 0.00 0.00 0.00 0.00 0.00 0.00 0.00 0.00 0.00 0.00 0.00 0.00 0.00 0.00 0.00 0.00 0.00 0.00 0.00 0.00 0.01 0.01 0.01 0.01 0.01 0.00 0.00 0.00 0.00 0.01 0.01 0.01 0.02 0.02 0.02 0.03 0.03 0.03 0.03 0.02 0.02
0.00 0.00 0.00 0.00 0.00 0.00 0.00 0.00 0.00 0.00 0.00 0.00 0.00 0.00 0.00 0.00 0.00 0.00 0.00 0.00 0.00 0.00 0.01 0.01 0.00 0.00 0.01 0.01 0.01 0.01 0.01 0.01 0.01 0.01 0.01 0.01 0.01 0.01 0.01 0.01 0.01 0.01 0.01 0.01
0.00 0.00 0.00 0.00 0.00 0.00 0.00 0.00 0.00 0.00 0.00 0.00 0.00 0.00 0.00 0.00 0.00 0.00 0.00 0.00 0.00 0.00 0.00 0.00 0.00 0.00 0.00 0.00 0.00 0.01 0.01 0.01 0.01 0.01 0.01 0.01 0.01 0.01 0.01 0.01 0.01 0.01 0.00 0.00
0.00 0.00 0.00 0.00 0.00 0.00 0.00 0.00 0.00 0.00 0.00 0.00 0.00 0.00 0.00 0.00 0.00 0.00 0.00 0.00 0.00 0.00 0.00 0.00 0.00 0.00 0.00 0.00 0.00 0.00 0.00 0.01 0.01 0.01 0.01 0.01 0.00 0.01 0.01 0.01 0.01 0.01 0.00 0.00
0.00 0.00 0.00 0.00 0.00 0.00 0.00 0.00 0.00 0.00 0.00 0.00 0.00 0.00 0.00 0.00 0.00 0.00 0.00 0.00 0.00 0.00 0.00 0.00 0.00 0.00 0.00 0.00 0.00 0.00 0.00 0.00 0.00 0.01 0.01 0.01 0.01 0.01 0.01 0.01 0.01 0.01 0.01 0.00
0.00 0.00 0.00 0.00 0.00 0.00 0.00 0.00 0.00 0.00 0.00 0.00 0.00 0.00 0.00 0.00 0.00 0.00 0.00 0.00 0.00 0.00 0.00 0.00 0.00 0.00 0.00 0.00 0.00 0.00 0.00 0.00 0.00 0.00 0.00 0.00 0.00 0.01 0.01 0.02 0.01 0.01 0.00 0.00
0.00 0.00 0.00 0.00 0.00 0.00 0.00 0.00 0.00 0.00 0.00 0.00 0.00 0.00 0.00 0.00 0.00 0.00 0.00 0.00 0.00 0.00 0.00 0.00 0.00 0.00 0.00 0.00 0.00 0.00 0.00 0.00 0.00 0.00 0.00 0.00 0.00 0.00 0.00 0.00 0.00 0.00 0.00 0.00
0.00 0.00 0.00 0.00 0.00 0.00 0.00 0.00 0.00 0.00 0.00 0.00 0.00 0.00 0.00 0.00 0.00 0.00 0.00 0.00 0.00 0.00 0.00 0.00 0.00 0.00 0.00 0.00 0.00 0.00 0.00 0.00 0.00 0.00 0.00 0.00 0.00 0.00 0.00 0.00 0.00 0.00 0.00 0.00
0.00 0.00 0.00 0.00 0.00 0.00 0.00 0.00 0.00 0.00 0.00 0.00 0.00 0.00 0.00 0.00 0.00 0.00 0.00 0.00 0.00 0.00 0.00 0.00 0.00 0.00 0.00 0.00 0.00 0.00 0.00 0.00 0.00 0.00 0.00 0.00 0.00 0.00 0.00 0.00 0.00 0.00 0.00 0.00
0.00 0.00 0.00 0.00 0.00 0.00 0.00 0.00 0.00 0.00 0.00 0.00 0.00 0.00 0.00 0.00 0.00 0.00 0.00 0.00 0.00 0.00 0.00 0.00 0.00 0.00 0.00 0.00 0.00 0.00 0.00 0.00 0.00 0.00 0.00 0.00 0.00 0.00 0.00 0.00 0.00 0.00 0.00 0.00
0.00 0.00 0.00 0.00 0.00 0.00 0.00 0.00 0.00 0.00 0.00 0.00 0.00 0.00 0.00 0.00 0.00 0.00 0.00 0.00 0.00 0.00 0.00 0.00 0.00 0.00 0.00 0.00 0.00 0.00 0.00 0.00 0.00 0.00 0.00 0.00 0.00 0.00 0.00 0.00 0.00 0.00 0.00 0.00
0.00 0.00 0.00 0.00 0.00 0.00 0.00 0.00 0.00 0.00 0.00 0.00 0.00 0.00 0.00 0.00 0.00 0.00 0.00 0.00 0.00 0.00 0.00 0.00 0.00 0.00 0.00 0.00 0.00 0.00 0.00 0.00 0.00 0.00 0.00 0.00 0.00 0.00 0.00 0.00 0.00 0.00 0.00 0.00
0.00 0.00 0.00 0.00 0.00 0.00 0.00 0.00 0.00 0.00 0.00 0.00 0.00 0.00 0.00 0.00 0.00 0.00 0.00 0.00 0.00 0.00 0.00 0.00 0.00 0.00 0.00 0.00 0.00 0.00 0.00 0.00 0.00 0.00 0.00 0.00 0.00 0.00 0.00 0.00 0.00 0.00 0.00 0.00
0.00 0.00 0.00 0.00 0.00 0.00 0.00 0.00 0.00 0.00 0.00 0.00 0.00 0.00 0.00 0.00 0.00 0.00 0.00 0.00 0.00 0.00 0.00 0.00 0.00 0.00 0.00 0.00 0.00 0.00 0.00 0.00 0.00 0.00 0.00 0.00 0.00 0.00 0.00 0.00 0.00 0.00 0.00 0.00
0.00 0.00 0.00 0.00 0.00 0.00 0.00 0.00 0.00 0.00 0.00 0.00 0.00 0.00 0.00 0.00 0.00 0.00 0.00 0.00 0.00 0.00 0.00 0.00 0.00 0.00 0.00 0.00 0.00 0.00 0.00 0.00 0.00 0.00 0.00 0.00 0.00 0.00 0.00 0.00 0.00 0.00 0.00 0.00
0.00 0.00 0.00 0.00 0.00 0.00 0.00 0.00 0.00 0.00 0.00 0.00 0.00 0.00 0.00 0.00 0.00 0.00 0.00 0.00 0.00 0.00 0.00 0.00 0.00 0.00 0.00 0.00 0.00 0.00 0.00 0.00 0.00 0.00 0.00 0.00 0.00 0.00 0.00 0.00 0.00 0.00 0.00 0.01
0.00 0.00 0.00 0.00 0.00 0.00 0.00 0.00 0.00 0.00 0.00 0.00 0.00 0.00 0.00 0.00 0.00 0.00 0.00 0.00 0.00 0.00 0.00 0.00 0.00 0.00 0.00 0.00 0.00 0.00 0.00 0.00 0.00 0.00 0.00 0.00 0.00 0.00 0.00 0.00 0.00 0.01 0.01 0.01
0.00 0.00 0.00 0.00 0.00 0.00 0.00 0.00 0.00 0.00 0.00 0.00 0.00 0.00 0.00 0.00 0.00 0.00 0.00 0.00 0.00 0.00 0.00 0.00 0.00 0.00 0.00 0.00 0.00 0.00 0.00 0.00 0.00 0.00 0.00 0.00 0.00 0.00 0.00 0.00 0.00 0.00 0.01 0.01
0.00 0.00 0.00 0.00 0.00 0.00 0.00 0.00 0.00 0.00 0.00 0.00 0.00 0.00 0.00 0.00 0.00 0.00 0.00 0.00 0.00 0.00 0.00 0.00 0.00 0.00 0.00 0.00 0.00 0.00 0.00 0.00 0.00 0.00 0.00 0.00 0.00 0.00 0.00 0.00 0.00 0.00 0.01 0.01
0.00 0.00 0.00 0.00 0.00 0.00 0.00 0.00 0.00 0.00 0.00 0.00 0.00 0.00 0.00 0.00 0.00 0.00 0.00 0.00 0.00 0.00 0.00 0.00 0.00 0.00 0.00 0.00 0.00 0.00 0.00 0.00 0.00 0.00 0.00 0.00 0.00 0.00 0.00 0.00 0.00 0.01 0.01 0.01
0.00 0.00 0.00 0.00 0.00 0.00 0.00 0.00 0.00 0.00 0.00 0.00 0.00 0.00 0.00 0.00 0.00 0.00 0.00 0.00 0.00 0.00 0.00 0.00 0.00 0.00 0.00 0.00 0.00 0.00 0.00 0.00 0.00 0.00 0.00 0.00 0.00 0.00 0.00 0.00 0.00 0.01 0.01 0.01
0.00 0.00 0.00 0.00 0.00 0.00 0.00 0.00 0.00 0.00 0.00 0.00 0.00 0.00 0.00 0.01 0.01 0.01 0.00 0.00 0.00 0.00 0.00 0.00 0.00 0.00 0.00 0.00 0.00 0.00 0.00 0.00 0.00 0.00 0.00 0.00 0.00 0.00 0.00 0.00 0.00 0.01 0.01 0.01
0.00 0.00 0.00 0.00 0.00 0.00 0.00 0.00 0.00 0.00 0.00 0.00 0.00 0.00 0.01 0.01 0.01 0.01 0.01 0.00 0.00 0.00 0.00 0.00 0.00 0.00 0.00 0.00 0.00 0.00 0.00 0.00 0.00 0.00 0.00 0.00 0.00 0.00 0.00 0.00 0.00 0.01 0.01 0.01
0.00 0.00 0.00 0.00 0.00 0.00 0.00 0.00 0.00 0.00 0.00 0.01 0.01 0.01 0.01 0.01 0.01 0.01 0.01 0.00 0.00 0.00 0.00 0.00 0.00 0.00 0.00 0.00 0.00 0.00 0.00 0.00 0.00 0.00 0.00 0.00 0.00 0.00 0.00 0.00 0.00 0.01 0.01 0.01
MSLP
1017.93 1017.78 1017.57 1017.33 1017.04 1016.72 1016.35 1015.94 1015.50 1015.05 1014.61 1014.23 1013.94 1013.79 1013.79 1013.97 1014.32 1014.81 1015.40 1016.05 1016.71 1017.32 1017.84 1018.27 1018.60 1018.83 1018.99 1019.10 1019.17 1019.22 1019.24 1019.24 1019.20 1019.11 1018.95 1018.72 1018.42 1018.07 1017.69 1017.31 1016.94 1016.60 1016.30 1016.03
1017.81 1017.49 1017.10 1016.66 1016.18 1015.69 1015.20 1014.72 1014.26 1013.83 1013.47 1013.18 1012.99 1012.92 1013.00 1013.21 1013.57 1014.05 1014.63 1015.26 1015.90 1016.52 1017.09 1017.59 1018.01 1018.35 1018.63 1018.84 1019.01 1019.15 1019.24 1019.28 1019.27 1019.19 1019.04 1018.82 1018.53 1018.20 1017.84 1017.46 1017.10 1016.76 1016.45 1016.17
1017.73 1017.25 1016.68 1016.05 1015.39 1014.75 1014.14 1013.58 1013.10 1012.70 1012.40 1012.19 1012.09 1012.12 1012.26 1012.53 1012.91 1013.40 1013.96 1014.58 1015.23 1015.87 1016.48 1017.05 1017.56 1018.00 1018.38 1018.70 1018.96 1019.16 1019.30 1019.38 1019.39 1019.32 1019.18 1018.96 1018.69 1018.37 1018.01 1017.65 1017.29 1016.94 1016.62 1016.31
1017.63 1017.01 1016.29 1015.51 1014.71 1013.94 1013.24 1012.63 1012.13 1011.75 1011.50 1011.36 1011.35 1011.45 1011.66 1011.98 1012.39 1012.89 1013.46 1014.08 1014.74 1015.40 1016.06 1016.69 1017.27 1017.80 1018.26 1018.65 1018.98 1019.23 1019.40 1019.50 1019.51 1019.45 1019.31 1019.10 1018.83 1018.51 1018.17 1017.81 1017.45 1017.10 1016.76 1016.44
1017.40 1016.69 1015.88 1015.00 1014.12 1013.28 1012.53 1011.89 1011.40 1011.04 1010.83 1010.76 1010.81 1010.97 1011.24 1011.60 1012.04 1012.56 1013.14 1013.78 1014.45 1015.14 1015.83 1016.50 1017.13 1017.71 1018.23 1018.67 1019.02 1019.29 1019.47 1019.57 1019.58 1019.51 1019.36 1019.15 1018.88 1018.58 1018.24 1017.90 1017.54 1017.19 1016.84 1016.49
1016.96 1016.21 1015.36 1014.46 1013.56 1012.72 1011.97 1011.36 1010.89 1010.57 1010.41 1010.38 1010.49 1010.70 1011.00 1011.40 1011.86 1012.40 1013.00 1013.65 1014.34 1015.05 1015.76 1016.45 1017.11 1017.71 1018.24 1018.69 1019.04 1019.31 1019.48 1019.55 1019.54 1019.46 1019.30 1019.08 1018.82 1018.52 1018.20 1017.86 1017.51 1017.16 1016.81 1016.45
1016.27 1015.52 1014.69 1013.83 1012.98 1012.20 1011.53 1010.98 1010.57 1010.31 1010.20 1010.22 1010.35 1010.60 1010.93 1011.34 1011.83 1012.38 1012.99 1013.65 1014.35 1015.06 1015.78 1016.48 1017.14 1017.73 1018.25 1018.68 1019.01 1019.24 1019.38 1019.43 1019.39 1019.28 1019.12 1018.90 1018.64 1018.35 1018.04 1017.71 1017.37 1017.03 1016.67 1016.31
1015.32 1014.60 1013.84 1013.08 1012.36 1011.70 1011.14 1010.70 1010.39 1010.20 1010.14 1010.20 1010.36 1010.62 1010.96 1011.38 1011.88 1012.44 1013.05 1013.72 1014.42 1015.13 1015.84 1016.53 1017.17 1017.74 1018.22 1018.61 1018.90 1019.10 1019.20 1019.21 1019.15 1019.03 1018.85 1018.63 1018.37 1018.09 1017.79 1017.47 1017.14 1016.80 1016.45 1016.08
1014.17 1013.51 1012.86 1012.24 1011.68 1011.19 1010.79 1010.48 1010.28 1010.18 1010.18 1010.27 1010.45 1010.71 1011.06 1011.48 1011.97 1012.52 1013.14 1013.80 1014.49 1015.20 1015.89 1016.55 1017.15 1017.68 1018.13 1018.47 1018.72 1018.88 1018.95 1018.94 1018.87 1018.74 1018.56 1018.34 1018.09 1017.82 1017.52 1017.21 1016.88 1016.53 1016.17 1015.80
1012.92 1012.33 1011.81 1011.36 1010.98 1010.67 1010.44 1010.29 1010.20 1010.19 1010.25 1010.37 1010.57 1010.83 1011.16 1011.57 1012.05 1012.60 1013.20 1013.86 1014.53 1015.22 1015.88 1016.51 1017.07 1017.56 1017.97 1018.28 1018.50 1018.63 1018.68 1018.67 1018.60 1018.48 1018.31 1018.10 1017.86 1017.59 1017.29 1016.97 1016.63 1016.26 1015.89 1015.50
1011.71 1011.21 1010.81 1010.52 1010.32 1010.20 1010.14 1010.13 1010.16 1010.23 1010.33 1010.48 1010.68 1010.94 1011.26 1011.65 1012.12 1012.65 1013.24 1013.87 1014.52 1015.18 1015.81 1016.40 1016.93 1017.38 1017.76 1018.04 1018.24 1018.37 1018.43 1018.43 1018.38 1018.28 1018.13 1017.94 1017.70 1017.43 1017.12 1016.79 1016.42 1016.03 1015.63 1015.21
1010.68 1010.26 1009.98 1009.84 1009.80 1009.83 1009.92 1010.02 1010.15 1010.28 1010.43 1010.60 1010.80 1011.04 1011.35 1011.72 1012.16 1012.68 1013.24 1013.85 1014.47 1015.09 1015.69 1016.24 1016.73 1017.16 1017.50 1017.78 1017.99 1018.13 1018.21 1018.24 1018.22 1018.15 1018.03 1017.85 1017.63 1017.35 1017.03 1016.66 1016.27 1015.84 1015.40 1014.95
1009.93 1009.58 1009.41 1009.39 1009.47 1009.63 1009.81 1010.01 1010.20 1010.38 1010.55 1010.72 1010.92 1011.15 1011.44 1011.80 1012.22 1012.71 1013.25 1013.82 1014.41 1014.99 1015.54 1016.05 1016.51 1016.90 1017.24 1017.51 1017.73 1017.89 1018.01 1018.08 1018.10 1018.06 1017.97 1017.81 1017.59 1017.31 1016.97 1016.57 1016.14 1015.68 1015.21 1014.72
1009.50 1009.22 1009.14 1009.20 1009.38 1009.61 1009.86 1010.11 1010.33 1010.53 1010.70 1010.87 1011.06 1011.29 1011.56 1011.91 1012.31 1012.77 1013.28 1013.82 1014.36 1014.90 1015.40 1015.87 1016.28 1016.65 1016.96 1017.23 1017.46 1017.65 1017.80 1017.91 1017.97 1017.97 1017.90 1017.76 1017.54 1017.25 1016.89 1016.48 1016.02 1015.53 1015.03 1014.52
1009.37 1009.17 1009.15 1009.28 1009.50 1009.77 1010.05 1010.31 1010.53 1010.72 1010.89 1011.06 1011.24 1011.45 1011.72 1012.05 1012.44 1012.88 1013.36 1013.86 1014.36 1014.84 1015.29 1015.70 1016.07 1016.40 1016.69 1016.95 1017.18 1017.39 1017.56 1017.70 1017.79 1017.81 1017.76 1017.63 1017.42 1017.13 1016.76 1016.34 1015.87 1015.37 1014.86 1014.34
1009.48 1009.35 1009.39 1009.56 1009.80 1010.07 1010.34 1010.58 1010.78 1010.95 1011.10 1011.25 1011.42 1011.64 1011.91 1012.24 1012.62 1013.04 1013.49 1013.95 1014.40 1014.82 1015.21 1015.56 1015.88 1016.16 1016.42 1016.66 1016.89 1017.10 1017.28 1017.43 1017.53 1017.57 1017.53 1017.41 1017.21 1016.92 1016.56 1016.14 1015.68 1015.19 1014.69 1014.19
1009.74 1009.69 1009.78 1009.96 1010.19 1010.44 1010.67 1010.86 1011.02 1011.16 1011.28 1011.42 1011.59 1011.81 1012.09 1012.42 1012.80 1013.21 1013.64 1014.06 1014.47 1014.83 1015.16 1015.45 1015.71 1015.95 1016.16 1016.37 1016.58 1016.77 1016.95 1017.10 1017.20 1017.25 1017.22 1017.11 1016.91 1016.64 1016.30 1015.90 1015.47 1015.01 1014.55 1014.07
1010.06 1010.08 1010.20 1010.38 1010.59 1010.79 1010.96 1011.09 1011.20 1011.30 1011.40 1011.52 1011.70 1011.92 1012.21 1012.56 1012.95 1013.36 1013.77 1014.16 1014.52 1014.84 1015.12 1015.35 1015.56 1015.74 1015.92 1016.09 1016.27 1016.44 1016.60 1016.74 1016.84 1016.88 1016.86 1016.76 1016.58 1016.33 1016.02 1015.66 1015.27 1014.86 1014.43 1014.00
1010.36 1010.43 1010.57 1010.74 1010.90 1011.04 1011.15 1011.22 1011.27 1011.32 1011.40 1011.52 1011.69 1011.94 1012.24 1012.61 1013.00 1013.42 1013.82 1014.20 1014.53 1014.81 1015.05 1015.24 1015.40 1015.54 1015.68 1015.82 1015.97 1016.12 1016.27 1016.39 1016.48 1016.52 1016.50 1016.42 1016.26 1016.04 1015.77 1015.46 1015.12 1014.75 1014.37 1013.98
1010.57 1010.69 1010.83 1010.97 1011.09 1011.16 1011.19 1011.20 1011.20 1011.21 1011.26 1011.37 1011.56 1011.82 1012.15 1012.53 1012.94 1013.36 1013.77 1014.13 1014.45 1014.71 1014.92 1015.08 1015.22 1015.33 1015.45 1015.58 1015.71 1015.85 1015.98 1016.10 1016.18 1016.23 1016.21 1016.14 1016.00 1015.82 1015.59 1015.32 1015.02 1014.70 1014.36 1013.99
1010.66 1010.80 1010.94 1011.05 1011.11 1011.11 1011.08 1011.03 1010.98 1010.96 1010.99 1011.10 1011.29 1011.57 1011.92 1012.32 1012.74 1013.17 1013.58 1013.94 1014.25 1014.51 1014.71 1014.86 1014.99 1015.11 1015.23 1015.35 1015.48 1015.62 1015.76 1015.88 1015.96 1016.01 1016.01 1015.95 1015.84 1015.68 1015.48 1015.24 1014.98 1014.69 1014.37 1014.00
1010.60 1010.76 1010.88 1010.95 1010.95 1010.90 1010.81 1010.71 1010.62 1010.58 1010.61 1010.72 1010.92 1011.21 1011.57 1011.98 1012.42 1012.85 1013.26 1013.63 1013.94 1014.20 1014.41 1014.58 1014.72 1014.86 1014.99 1015.14 1015.29 1015.44 1015.59 1015.72 1015.82 1015.88 1015.88 1015.84 1015.74 1015.60 1015.41 1015.20 1014.95 1014.67 1014.35 1013.98
1010.39 1010.54 1010.64 1010.66 1010.62 1010.52 1010.40 1010.26 1010.16 1010.11 1010.14 1010.25 1010.47 1010.77 1011.14 1011.55 1011.99 1012.43 1012.84 1013.21 1013.53 1013.80 1014.03 1014.22 1014.40 1014.57 1014.74 1014.92 1015.10 1015.29 1015.46 1015.61 1015.72 1015.79 1015.80 1015.76 1015.67 1015.53 1015.35 1015.13 1014.88 1014.60 1014.27 1013.87
1010.00 1010.13 1010.19 1010.19 1010.11 1009.99 1009.84 1009.70 1009.60 1009.56 1009.60 1009.74 1009.97 1010.28 1010.65 1011.07 1011.51 1011.94 1012.35 1012.72 1013.05 1013.33 1013.59 1013.81 1014.03 1014.24 1014.46 1014.68 1014.91 1015.13 1015.33 1015.50 1015.62 1015.69 1015.71 1015.66 1015.56 1015.41 1015.22 1014.99 1014.72 1014.41 1014.06 1013.64
1009.39 1009.50 1009.54 1009.51 1009.42 1009.29 1009.15 1009.03 1008.96 1008.95 1009.02 1009.19 1009.44 1009.76 1010.15 1010.57 1011.00 1011.42 1011.82 1012.20 1012.53 1012.83 1013.11 1013.37 1013.63 1013.89 1014.15 1014.42 1014.69 1014.94 1015.16 1015.35 1015.48 1015.55 1015.55 1015.49 1015.37 1015.19 1014.97 1014.71 1014.42 1014.09 1013.71 1013.28
1008.56 1008.63 1008.65 1008.61 1008.52 1008.41 1008.31 1008.24 1008.21 1008.26 1008.39 1008.60 1008.88 1009.23 1009.63 1010.05 1010.48 1010.89 1011.29 1011.66 1012.01 1012.33 1012.63 1012.93 1013.22 1013.52 1013.83 1014.14 1014.43 1014.71 1014.95 1015.14 1015.26 1015.32 1015.30 1015.21 1015.06 1014.84 1014.59 1014.29 1013.97 1013.61 1013.21 1012.78
1007.48 1007.53 1007.52 1007.48 1007.42 1007.35 1007.31 1007.30 1007.35 1007.47 1007.67 1007.94 1008.27 1008.66 1009.08 1009.51 1009.95 1010.37 1010.77 1011.14 1011.50 1011.84 1012.17 1012.50 1012.83 1013.16 1013.50 1013.84 1014.16 1014.44 1014.68 1014.86 1014.97 1015.00 1014.95 1014.82 1014.62 1014.37 1014.07 1013.74 1013.39 1013.01 1012.61 1012.18
Thickness
5538 5544 5546 5545 5545 5544 5539 5537 5535 5545 5549 5553 5551 5547 5544 5540 5536 5531 5526 5520 5514 5507 5501 5496 5491 5487 5484 5481 5478 5476 5474 5472 5470 5469 5469 5469 5469 5469 5470 5470 5471 5471 5472 5472
5536 5547 5549 5549 5553 5550 5548 5548 5548 5548 5550 5557 5553 5550 5545 5540 5536 5530 5525 5520 5514 5508 5501 5495 5489 5485 5480 5476 5473 5470 5468 5465 5464 5463 5462 5461 5460 5460 5460 5460 5460 5460 5460 5460
5530 5548 5546 5545 5562 5559 5556 5557 5554 5549 5555 5556 5552 5549 5544 5539 5535 5529 5524 5519 5513 5505 5499 5492 5487 5482 5476 5472 5468 5464 5461 5459 5457 5455 5454 5452 5451 5450 5450 5449 5448 5448 5448 5448
5526 5535 5533 5565 5575 5573 5565 5564 5561 5560 5559 5556 5552 5548 5543 5539 5533 5528 5522 5516 5509 5502 5496 5490 5484 5478 5473 5468 5463 5459 5455 5452 5450 5447 5445 5443 5442 5440 5439 5438 5437 5436 5436 5435
5525 5529 5549 5569 5569 5566 5561 5560 5566 5562 5559 5554 5549 5542 5537 5536 5531 5525 5519 5512 5505 5499 5492 5485 5479 5474 5468 5463 5458 5453 5449 5445 5442 5439 5437 5434 5432 5430 5428 5426 5425 5423 5422 5422
5524 5527 5540 5569 5566 5566 5560 5551 5567 5564 5558 5552 5544 5529 5531 5531 5527 5520 5514 5507 5500 5494 5488 5480 5474 5468 5462 5457 5452 5447 5443 5438 5435 5432 5428 5425 5422 5419 5417 5415 5413 5412 5410 5409
5515 5522 5546 5565 5560 5556 5545 5555 5563 5561 5555 5548 5539 5533 5529 5526 5520 5514 5507 5501 5495 5488 5481 5475 5469 5462 5456 5450 5445 5441 5436 5432 5428 5424 5420 5417 5414 5410 5408 5405 5403 5401 5399 5397
5522 5520 5539 5559 5552 5548 5554 5558 5558 5554 5550 5544 5536 5531 5526 5520 5514 5507 5500 5494 5488 5480 5474 5468 5462 5455 5449 5443 5439 5434 5429 5424 5420 5416 5412 5409 5404 5401 5398 5395 5391 5389 5386 5384
5542 5549 5561 5558 5556 5557 5557 5553 5551 5546 5543 5537 5530 5524 5519 5513 5507 5501 5494 5488 5481 5474 5467 5461 5455 5449 5442 5436 5432 5426 5421 5416 5411 5407 5403 5399 5394 5390 5386 5382 5379 5376 5373 5371
5542 5555 5559 5558 5556 5555 5552 5548 5545 5541 5537 5531 5523 5518 5513 5507 5501 5495 5489 5482 5475 5468 5460 5454 5448 5442 5435 5429 5424 5417 5412 5407 5402 5397 5393 5388 5384 5379 5375 5371 5367 5364 5361 5358
5535 5548 5551 5555 5553 5551 5548 5543 5538 5534 5530 5524 5518 5512 5506 5500 5494 5488 5482 5475 5468 5460 5454 5448 5441 5435 5428 5421 5415 5407 5402 5397 5392 5388 5382 5377 5373 5368 5364 5360 5356 5353 5350 5346
5536 5547 5546 5549 5549 5545 5539 5534 5530 5525 5520 5516 5511 5506 5500 5494 5488 5481 5474 5467 5460 5453 5446 5440 5434 5427 5420 5413 5406 5399 5392 5387 5382 5377 5372 5367 5362 5358 5355 5351 5348 5343 5339 5336
5545 5544 5540 5541 5539 5536 5531 5527 5523 5518 5513 5507 5504 5499 5493 5487 5480 5474 5467 5460 5453 5446 5439 5432 5425 5417 5411 5404 5397 5390 5383 5377 5372 5367 5361 5356 5352 5348 5346 5343 5337 5333 5330 5326
5537 5535 5533 5532 5528 5526 5522 5519 5514 5509 5505 5500 5495 5491 5485 5479 5472 5465 5459 5453 5446 5438 5431 5423 5415 5408 5401 5394 5387 5380 5374 5368 5362 5356 5351 5346 5341 5337 5334 5331 5328 5324 5320 5316
5528 5526 5524 5523 5520 5516 5512 5507 5502 5498 5495 5491 5486 5481 5476 5470 5463 5457 5451 5444 5437 5429 5422 5415 5407 5399 5393 5386 5378 5371 5365 5358 5353 5347 5341 5337 5332 5328 5324 5320 5317 5314 5311 5307
5520 5517 5514 5511 5509 5506 5501 5496 5492 5489 5486 5482 5477 5472 5467 5462 5455 5448 5442 5435 5427 5420 5413 5406 5398 5391 5385 5377 5370 5363 5356 5351 5345 5338 5333 5328 5324 5319 5315 5311 5307 5303 5300 5296
5505 5503 5500 5498 5497 5495 5493 5490 5486 5482 5478 5473 5469 5463 5457 5451 5444 5438 5432 5426 5419 5412 5405 5398 5391 5384 5377 5370 5362 5355 5348 5343 5338 5331 5325 5320 5315 5311 5306 5301 5297 5294 5290 5286
5500 5499 5497 5494 5491 5488 5485 5482 5478 5474 5469 5465 5460 5454 5447 5441 5436 5430 5423 5416 5408 5402 5396 5390 5383 5376 5369 5362 5355 5348 5341 5335 5329 5323 5318 5312 5307 5303 5297 5293 5288 5284 5281 5277
5490 5489 5487 5484 5482 5478 5475 5472 5469 5465 5461 5456 5450 5444 5439 5434 5427 5421 5414 5406 5399 5392 5388 5382 5377 5369 5362 5355 5348 5340 5333 5327 5322 5316 5310 5306 5300 5294 5289 5284 5280 5275 5272 5268
5477 5476 5475 5472 5470 5467 5465 5462 5458 5454 5450 5445 5440 5434 5429 5424 5418 5411 5404 5398 5393 5388 5382 5375 5368 5361 5354 5347 5341 5333 5326 5320 5314 5309 5303 5297 5291 5286 5281 5276 5272 5268 5264 5260
5464 5463 5462 5460 5458 5456 5454 5452 5447 5443 5440 5435 5430 5425 5420 5414 5408 5401 5395 5390 5387 5380 5374 5368 5360 5354 5347 5341 5335 5327 5320 5314 5307 5301 5295 5289 5283 5278 5273 5268 5264 5260 5256 5253
5453 5451 5450 5449 5447 5445 5444 5441 5437 5434 5430 5425 5421 5416 5410 5405 5399 5393 5389 5385 5380 5374 5367 5360 5353 5348 5341 5335 5327 5321 5314 5307 5300 5293 5287 5281 5276 5271 5266 5261 5256 5253 5249 5245
5442 5441 5440 5439 5437 5436 5434 5430 5427 5424 5421 5417 5412 5408 5404 5399 5393 5387 5383 5378 5372 5367 5360 5353 5348 5342 5336 5328 5321 5314 5307 5300 5293 5286 5280 5275 5269 5264 5259 5254 5250 5246 5243 5240
5433 5431 5430 5429 5426 5423 5422 5421 5418 5415 5412 5409 5405 5401 5396 5391 5386 5382 5378 5373 5367 5360 5353 5347 5342 5336 5330 5321 5314 5307 5300 5293 5286 5280 5274 5268 5263 5257 5252 5248 5244 5241 5238 5235
5423 5421 5419 5417 5415 5416 5415 5412 5408 5405 5402 5400 5396 5393 5388 5384 5380 5375 5369 5364 5360 5353 5346 5341 5336 5330 5323 5315 5308 5301 5294 5287 5280 5274 5268 5262 5257 5252 5247 5243 5239 5236 5234 5232
5413 5413 5412 5411 5410 5409 5407 5404 5401 5398 5395 5392 5389 5386 5381 5377 5372 5367 5362 5356 5351 5346 5339 5334 5328 5323 5315 5308 5301 5294 5288 5281 5275 5268 5262 5257 5251 5246 5242 5239 5236 5233 5231 5230
5405 5405 5403 5403 5403 5401 5399 5397 5395 5393 5391 5387 5384 5380 5375 5370 5364 5359 5354 5349 5343 5338 5333 5327 5321 5315 5308 5302 5295 5288 5282 5275 5269 5263 5257 5252 5247 5242 5239 5235 5233 5231 5229 5228